Flag for India Weather past 2 weeks in Dharamshala, Himachal Pradesh, India

Now
86 °F

Fog.


Feels Like: 112 °F
Forecast: 64 / 72 °F
Wind: 1 mph from North

Location: Amritsar Airport

Current Time: Aug 5, 2015 at 9:00:18 AM

Latest Report: Aug 5, 2015 at 8:00 AM


Visibility: 1 mi

Pressure: 29.56 "Hg (25.30 "Hg at 1382m altitude)

Humidity: 100%

Dew point: 86 °F

Location of DharamshalaLocation

Historic Weather in Dharamshala — Graph

°F

Dharamshala temperature yesterday

Maximum temperature yesterday: 93 °F (at 1:30 PM)
Minimum temperature yesterday: 82 °F (at 3:30 AM)
Average temperature yesterday: 88 °F

Past Weeks' High & Low Weather Summary

 TemperatureHumidityPressure
High95 °F (Jul 23, 3:30 PM)100% (Jul 22, 1:30 AM)29.71 "Hg (Jul 22, 1:30 AM)
Low75 °F (Jul 26, 6:00 AM)59% (Jul 29, 5:30 PM)29.45 "Hg (Jul 29, 5:00 PM)
Average85 °F87%29.58 "Hg
* Reported Jul 21 7:30 AM — Aug 5 7:30 AM, Dharamshala, Weather by CustomWeather, © 2015

Note: Actual official high and low records may vary slightly from our data, if they occured in-between our weather recording intervals... More about our weather records

Advertising

Dharamshala weather history for previous 24 hours

 ConditionsComfort  
Time TempWeatherWind HumidityBarometerVisibility
7:30 AM
Wed, Aug 5
84 °FFog.3 mph100%29.56 "Hg1 mi
6:30 AM82 °FWarm.No wind100%29.53 "Hg1 mi
5:30 AM84 °FFog.No wind100%29.50 "Hg1 mi
4:00 AM84 °FFog.No wind100%29.50 "Hg1 mi
3:30 AM84 °FFog.No wind100%29.50 "Hg1 mi
3:00 AM84 °FFog.No wind100%29.50 "Hg2 mi
2:30 AM84 °FFog.No wind100%29.53 "Hg2 mi
2:00 AM84 °FFog.No wind100%29.53 "Hg2 mi
1:30 AM84 °FFog.No wind100%29.53 "Hg2 mi
12:30 AM86 °FFog.No wind94%29.53 "Hg2 mi
12:00 AM84 °FFog.No wind100%29.53 "Hg2 mi
11:30 PM
Tue, Aug 4
86 °FFog.No wind94%29.53 "Hg2 mi
11:00 PM86 °FFog.No wind94%29.53 "Hg2 mi
10:30 PM86 °FFog.No wind94%29.53 "Hg2 mi
10:00 PM86 °FFog.No wind94%29.53 "Hg2 mi
9:30 PM86 °FFog.No wind94%29.53 "Hg2 mi
9:00 PM86 °FFog.No wind94%29.53 "Hg2 mi
8:30 PM88 °FFog.No wind84%29.50 "Hg2 mi
7:30 PM90 °FFog.No wind75%29.53 "Hg2 mi
7:00 PM90 °FFog.No wind75%29.53 "Hg2 mi
6:30 PM90 °FFog.3 mph75%29.53 "Hg2 mi
6:00 PM91 °FFog.No wind75%29.50 "Hg2 mi
5:30 PM91 °FScattered clouds.No wind75%29.50 "Hg2 mi
5:00 PM91 °FFog.No wind80%29.50 "Hg1 mi
4:30 PM91 °FFog.No wind80%29.50 "Hg1 mi
3:30 PM90 °FLight rain. Broken clouds.9 mph75%29.53 "Hg2 mi
3:00 PM91 °FBroken clouds.1 mph71%29.53 "Hg2 mi
2:30 PM93 °FBroken clouds.3 mph71%29.56 "Hg2 mi
2:00 PM93 °FScattered clouds.5 mph67%29.56 "Hg2 mi
1:30 PM93 °FScattered clouds.2 mph67%29.56 "Hg2 mi
12:30 PM91 °FThundershowers. Scattered clouds.2 mph71%29.59 "Hg2 mi
12:00 PM91 °FThundershowers. Scattered clouds.2 mph71%29.59 "Hg2 mi
11:30 AM91 °FScattered clouds.7 mph75%29.59 "Hg2 mi
11:00 AM91 °FScattered clouds.7 mph75%29.59 "Hg2 mi
10:30 AM91 °FFog.8 mph71%29.59 "Hg2 mi
10:00 AM90 °FFog.7 mph84%29.59 "Hg2 mi
9:00 AM88 °FFog.5 mph89%29.62 "Hg1 mi
Weather by CustomWeather, © 2015

See weather overviewHow to use our weather pages